Time,TemperatureF,DewpointF,PressureIn,WindDirection,WindDirectionDegrees,WindSpeedMPH,WindSpeedGustMPH,Humidity,HourlyPrecipIn,Conditions,Clouds,dailyrainin,SoftwareType,DateUTC
2013-02-10 00:03:00,21.1,6.2,22.09,SW,236,2.0,21.0,52,0.00,,,0.00,Wunderground v.1.15,2013-02-10 07:03:00,
2013-02-10 00:05:00,21.1,6.2,22.09,NW,309,2.0,21.0,52,0.00,,,0.00,Wunderground v.1.15,2013-02-10 07:05:00,
2013-02-10 00:07:00,21.1,6.2,22.09,West,281,2.0,21.0,52,0.00,,,0.00,Wunderground v.1.15,2013-02-10 07:07:00,
2013-02-10 00:09:00,21.1,5.8,22.09,SW,221,2.0,21.0,51,0.00,,,0.00,Wunderground v.1.15,2013-02-10 07:09:00,
2013-02-10 00:13:00,21.2,5.9,22.09,WSW,245,3.0,21.0,51,0.00,,,0.00,Wunderground v.1.15,2013-02-10 07:13:00,
2013-02-10 00:19:00,21.1,5.8,22.09,South,186,4.0,21.0,51,0.00,,,0.00,Wunderground v.1.15,2013-02-10 07:19:00,
2013-02-10 00:21:00,21.0,6.1,22.09,SE,142,3.0,21.0,52,0.00,,,0.00,Wunderground v.1.15,2013-02-10 07:21:00,
2013-02-10 00:25:00,21.1,6.2,22.09,SW,219,3.0,21.0,52,0.00,,,0.00,Wunderground v.1.15,2013-02-10 07:25:00,
2013-02-10 00:29:00,21.1,6.2,22.10,West,264,4.0,21.0,52,0.00,,,0.00,Wunderground v.1.15,2013-02-10 07:29:00,
2013-02-10 00:31:00,21.2,6.3,22.10,SW,231,5.0,21.0,52,0.00,,,0.00,Wunderground v.1.15,2013-02-10 07:31:00,
2013-02-10 00:33:00,21.2,6.3,22.10,West,260,6.0,6.0,52,0.00,,,0.00,Wunderground v.1.15,2013-02-10 07:33:00,
2013-02-10 00:37:00,21.2,6.3,22.09,WSW,238,6.0,21.0,52,0.00,,,0.00,Wunderground v.1.15,2013-02-10 07:37:00,
2013-02-10 00:39:00,21.3,6.8,22.10,WSW,256,6.0,21.0,53,0.00,,,0.00,Wunderground v.1.15,2013-02-10 07:39:00,
2013-02-10 00:45:00,21.3,6.4,22.09,WSW,238,6.0,21.0,52,0.00,,,0.00,Wunderground v.1.15,2013-02-10 07:45:00,
2013-02-10 00:47:00,21.3,6.8,22.09,SW,225,6.0,21.0,53,0.00,,,0.00,Wunderground v.1.15,2013-02-10 07:47:00,
2013-02-10 00:49:00,21.3,6.8,22.09,WSW,250,7.0,21.0,53,0.00,,,0.00,Wunderground v.1.15,2013-02-10 07:49:00,
2013-02-10 00:55:00,21.3,6.8,22.09,WSW,243,7.0,7.0,53,0.00,,,0.00,Wunderground v.1.15,2013-02-10 07:55:00,
2013-02-10 00:57:00,21.3,6.8,22.09,SW,223,7.0,21.0,53,0.00,,,0.00,Wunderground v.1.15,2013-02-10 07:57:00,
2013-02-10 00:59:00,21.2,6.7,22.10,SSW,210,7.0,21.0,53,0.00,,,0.00,Wunderground v.1.15,2013-02-10 07:59:00,
2013-02-10 01:05:00,21.3,6.4,22.10,West,260,7.0,7.0,52,0.00,,,0.00,Wunderground v.1.15,2013-02-10 08:05:00,
2013-02-10 01:07:00,21.3,6.4,22.10,SW,235,7.0,21.0,52,0.00,,,0.00,Wunderground v.1.15,2013-02-10 08:07:00,
2013-02-10 01:11:00,21.3,6.4,22.10,West,272,7.0,21.0,52,0.00,,,0.00,Wunderground v.1.15,2013-02-10 08:11:00,
2013-02-10 01:13:00,21.3,6.4,22.10,SW,236,7.0,21.0,52,0.00,,,0.00,Wunderground v.1.15,2013-02-10 08:13:00,
2013-02-10 01:17:00,21.2,6.7,22.11,SW,228,7.0,21.0,53,0.00,,,0.00,Wunderground v.1.15,2013-02-10 08:17:00,
2013-02-10 01:19:00,21.2,6.7,22.11,SW,231,6.0,21.0,53,0.00,,,0.00,Wunderground v.1.15,2013-02-10 08:19:00,
2013-02-10 01:21:00,21.1,6.6,22.10,WSW,256,6.0,21.0,53,0.00,,,0.00,Wunderground v.1.15,2013-02-10 08:21:00,
2013-02-10 01:23:00,21.1,6.6,22.11,WSW,240,6.0,21.0,53,0.00,,,0.00,Wunderground v.1.15,2013-02-10 08:23:00,
2013-02-10 01:27:00,21.0,6.9,22.11,WSW,239,6.0,21.0,54,0.00,,,0.00,Wunderground v.1.15,2013-02-10 08:27:00,
2013-02-10 01:29:00,21.0,6.9,22.11,SSW,209,6.0,21.0,54,0.00,,,0.00,Wunderground v.1.15,2013-02-10 08:29:00,
2013-02-10 01:33:00,20.9,6.8,22.11,WSW,240,5.0,21.0,54,0.00,,,0.00,Wunderground v.1.15,2013-02-10 08:33:00,
2013-02-10 01:35:00,20.9,7.2,22.11,NNE,18,6.0,6.0,55,0.00,,,0.00,Wunderground v.1.15,2013-02-10 08:35:00,
2013-02-10 01:39:00,20.8,7.2,22.11,SW,219,5.0,21.0,55,0.00,,,0.00,Wunderground v.1.15,2013-02-10 08:39:00,
2013-02-10 01:43:00,20.8,6.7,22.11,SSW,193,5.0,21.0,54,0.00,,,0.00,Wunderground v.1.15,2013-02-10 08:43:00,
2013-02-10 01:47:00,20.7,7.1,22.12,WSW,249,5.0,21.0,55,0.00,,,0.00,Wunderground v.1.15,2013-02-10 08:47:00,
2013-02-10 01:49:00,20.7,7.1,22.12,WSW,243,5.0,21.0,55,0.00,,,0.00,Wunderground v.1.15,2013-02-10 08:49:00,
2013-02-10 01:53:00,20.7,7.1,22.12,SW,236,4.0,4.0,55,0.00,,,0.00,Wunderground v.1.15,2013-02-10 08:53:00,
2013-02-10 01:55:00,20.6,7.0,22.12,WSW,248,4.0,6.0,55,0.00,,,0.00,Wunderground v.1.15,2013-02-10 08:55:00,
2013-02-10 01:59:00,20.6,6.6,22.12,South,172,4.0,21.0,54,0.00,,,0.00,Wunderground v.1.15,2013-02-10 08:59:00,
2013-02-10 02:03:00,20.6,6.6,22.12,South,172,3.0,3.0,54,0.00,,,0.00,Wunderground v.1.15,2013-02-10 09:03:00,
2013-02-10 02:05:00,20.5,6.5,22.12,WSW,253,3.0,6.0,54,0.00,,,0.00,Wunderground v.1.15,2013-02-10 09:05:00,
2013-02-10 02:07:00,20.6,6.6,22.12,NW,309,3.0,21.0,54,0.00,,,0.00,Wunderground v.1.15,2013-02-10 09:07:00,
2013-02-10 02:11:00,20.5,6.9,22.12,WNW,283,3.0,21.0,55,0.00,,,0.00,Wunderground v.1.15,2013-02-10 09:11:00,
2013-02-10 02:13:00,20.4,6.8,22.12,SSW,208,3.0,21.0,55,0.00,,,0.00,Wunderground v.1.15,2013-02-10 09:13:00,
2013-02-10 02:15:00,20.4,6.4,22.12,WSW,247,3.0,21.0,54,0.00,,,0.00,Wunderground v.1.15,2013-02-10 09:15:00,
2013-02-10 02:17:00,20.4,6.8,22.12,West,277,3.0,21.0,55,0.00,,,0.00,Wunderground v.1.15,2013-02-10 09:17:00,
2013-02-10 02:19:00,20.4,6.8,22.12,SW,225,3.0,21.0,55,0.00,,,0.00,Wunderground v.1.15,2013-02-10 09:19:00,
2013-02-10 02:23:00,20.2,6.6,22.12,WSW,242,3.0,3.0,55,0.00,,,0.00,Wunderground v.1.15,2013-02-10 09:23:00,
2013-02-10 02:25:00,20.2,6.6,22.12,SSW,210,2.0,21.0,55,0.00,,,0.00,Wunderground v.1.15,2013-02-10 09:25:00,
2013-02-10 02:27:00,20.2,6.6,22.12,SW,221,2.0,21.0,55,0.00,,,0.00,Wunderground v.1.15,2013-02-10 09:27:00,
2013-02-10 02:29:00,20.2,6.6,22.12,North,8,2.0,21.0,55,0.00,,,0.00,Wunderground v.1.15,2013-02-10 09:29:00,
2013-02-10 02:31:00,20.1,6.5,22.12,West,266,2.0,21.0,55,0.00,,,0.00,Wunderground v.1.15,2013-02-10 09:31:00,
2013-02-10 02:37:00,20.1,6.5,22.12,ENE,60,2.0,21.0,55,0.00,,,0.00,Wunderground v.1.15,2013-02-10 09:37:00,
2013-02-10 02:43:00,20.1,6.1,22.12,SW,229,2.0,21.0,54,0.00,,,0.00,Wunderground v.1.15,2013-02-10 09:43:00,
2013-02-10 02:49:00,20.1,5.7,22.13,North,8,2.0,21.0,53,0.00,,,0.00,Wunderground v.1.15,2013-02-10 09:49:00,
2013-02-10 02:51:00,20.1,5.7,22.13,NW,326,2.0,21.0,53,0.00,,,0.00,Wunderground v.1.15,2013-02-10 09:51:00,
2013-02-10 02:53:00,20.1,5.3,22.13,WSW,240,2.0,2.0,52,0.00,,,0.00,Wunderground v.1.15,2013-02-10 09:53:00,
2013-02-10 02:55:00,20.0,5.2,22.12,NE,39,2.0,21.0,52,0.00,,,0.00,Wunderground v.1.15,2013-02-10 09:55:00,
2013-02-10 02:57:00,20.1,4.8,22.13,North,1,2.0,21.0,51,0.00,,,0.00,Wunderground v.1.15,2013-02-10 09:57:00,
2013-02-10 02:59:00,20.1,4.4,22.13,South,187,2.0,21.0,50,0.00,,,0.00,Wunderground v.1.15,2013-02-10 09:59:00,
2013-02-10 03:03:00,20.2,4.1,22.12,North,9,2.0,21.0,49,0.00,,,0.00,Wunderground v.1.15,2013-02-10 10:03:00,
2013-02-10 03:05:00,20.3,4.2,22.12,NW,326,2.0,21.0,49,0.00,,,0.00,Wunderground v.1.15,2013-02-10 10:05:00,
2013-02-10 03:11:00,20.4,4.2,22.13,NW,311,3.0,21.0,49,0.00,,,0.00,Wunderground v.1.15,2013-02-10 10:11:00,
2013-02-10 03:13:00,20.4,4.2,22.13,NNE,15,3.0,21.0,49,0.00,,,0.00,Wunderground v.1.15,2013-02-10 10:13:00,
2013-02-10 03:17:00,20.4,4.2,22.13,NNW,338,3.0,21.0,49,0.00,,,0.00,Wunderground v.1.15,2013-02-10 10:17:00,
2013-02-10 03:19:00,20.3,4.2,22.13,NNE,12,3.0,21.0,49,0.00,,,0.00,Wunderground v.1.15,2013-02-10 10:19:00,
2013-02-10 03:23:00,20.4,4.2,22.13,WNW,284,3.0,3.0,49,0.00,,,0.00,Wunderground v.1.15,2013-02-10 10:23:00,
2013-02-10 03:25:00,20.4,4.2,22.13,SSW,204,2.0,21.0,49,0.00,,,0.00,Wunderground v.1.15,2013-02-10 10:25:00,
2013-02-10 03:27:00,20.4,3.8,22.13,West,269,2.0,21.0,48,0.00,,,0.00,Wunderground v.1.15,2013-02-10 10:27:00,
2013-02-10 03:29:00,20.4,4.2,22.13,North,352,2.0,21.0,49,0.00,,,0.00,Wunderground v.1.15,2013-02-10 10:29:00,
2013-02-10 03:31:00,20.3,4.2,22.13,NW,306,2.0,21.0,49,0.00,,,0.00,Wunderground v.1.15,2013-02-10 10:31:00,
2013-02-10 03:33:00,20.3,4.2,22.13,SE,138,2.0,2.0,49,0.00,,,0.00,Wunderground v.1.15,2013-02-10 10:33:00,
2013-02-10 03:37:00,20.3,3.7,22.13,NW,318,2.0,21.0,48,0.00,,,0.00,Wunderground v.1.15,2013-02-10 10:37:00,
2013-02-10 03:39:00,20.3,3.7,22.13,West,278,2.0,21.0,48,0.00,,,0.00,Wunderground v.1.15,2013-02-10 10:39:00,
2013-02-10 03:41:00,20.3,3.7,22.13,WSW,256,2.0,21.0,48,0.00,,,0.00,Wunderground v.1.15,2013-02-10 10:41:00,
2013-02-10 03:43:00,20.4,3.8,22.13,NW,305,2.0,21.0,48,0.00,,,0.00,Wunderground v.1.15,2013-02-10 10:43:00,
2013-02-10 03:49:00,20.3,3.7,22.13,South,184,2.0,21.0,48,0.00,,,0.00,Wunderground v.1.15,2013-02-10 10:49:00,
2013-02-10 03:51:00,20.3,4.2,22.13,North,349,2.0,21.0,49,0.00,,,0.00,Wunderground v.1.15,2013-02-10 10:51:00,
2013-02-10 03:57:00,20.4,3.8,22.13,NW,318,2.0,21.0,48,0.00,,,0.00,Wunderground v.1.15,2013-02-10 10:57:00,
2013-02-10 03:59:00,20.4,3.8,22.13,NE,41,3.0,21.0,48,0.00,,,0.00,Wunderground v.1.15,2013-02-10 10:59:00,
2013-02-10 04:01:00,20.4,3.8,22.13,NW,311,3.0,21.0,48,0.00,,,0.00,Wunderground v.1.15,2013-02-10 11:01:00,
2013-02-10 04:05:00,20.4,3.8,22.13,SW,224,2.0,4.0,48,0.00,,,0.00,Wunderground v.1.15,2013-02-10 11:05:00,
2013-02-10 04:07:00,20.3,4.2,22.13,North,11,2.0,21.0,49,0.00,,,0.00,Wunderground v.1.15,2013-02-10 11:07:00,
2013-02-10 04:09:00,20.3,4.2,22.14,NW,326,2.0,21.0,49,0.00,,,0.00,Wunderground v.1.15,2013-02-10 11:09:00,
2013-02-10 04:11:00,20.2,4.1,22.14,West,271,2.0,21.0,49,0.00,,,0.00,Wunderground v.1.15,2013-02-10 11:11:00,
2013-02-10 04:13:00,20.2,4.1,22.14,NNE,25,2.0,21.0,49,0.00,,,0.00,Wunderground v.1.15,2013-02-10 11:13:00,
2013-02-10 04:17:00,20.2,4.1,22.14,NNW,344,2.0,21.0,49,0.00,,,0.00,Wunderground v.1.15,2013-02-10 11:17:00,
2013-02-10 04:19:00,20.2,4.1,22.14,East,101,2.0,21.0,49,0.00,,,0.00,Wunderground v.1.15,2013-02-10 11:19:00,
2013-02-10 04:23:00,20.3,3.7,22.14,NNE,15,2.0,21.0,48,0.00,,,0.00,Wunderground v.1.15,2013-02-10 11:23:00,
2013-02-10 04:27:00,20.4,4.2,22.15,WSW,248,4.0,21.0,49,0.00,,,0.00,Wunderground v.1.15,2013-02-10 11:27:00,
2013-02-10 04:29:00,20.3,4.2,22.15,North,351,3.0,21.0,49,0.00,,,0.00,Wunderground v.1.15,2013-02-10 11:29:00,
2013-02-10 04:31:00,20.3,4.2,22.15,NNW,339,3.0,21.0,49,0.00,,,0.00,Wunderground v.1.15,2013-02-10 11:31:00,
2013-02-10 04:33:00,20.2,4.1,22.15,South,188,3.0,21.0,49,0.00,,,0.00,Wunderground v.1.15,2013-02-10 11:33:00,
2013-02-10 04:35:00,20.2,4.1,22.15,WSW,240,2.0,21.0,49,0.00,,,0.00,Wunderground v.1.15,2013-02-10 11:35:00,
2013-02-10 04:39:00,20.2,3.6,22.15,West,281,3.0,21.0,48,0.00,,,0.00,Wunderground v.1.15,2013-02-10 11:39:00,
2013-02-10 04:41:00,20.2,3.6,22.15,NNE,30,3.0,21.0,48,0.00,,,0.00,Wunderground v.1.15,2013-02-10 11:41:00,
2013-02-10 04:43:00,20.2,4.1,22.15,West,263,3.0,3.0,49,0.00,,,0.00,Wunderground v.1.15,2013-02-10 11:43:00,
2013-02-10 04:47:00,20.1,4.0,22.15,SW,226,2.0,21.0,49,0.00,,,0.00,Wunderground v.1.15,2013-02-10 11:47:00,
2013-02-10 04:49:00,20.1,3.5,22.15,WSW,253,2.0,21.0,48,0.00,,,0.00,Wunderground v.1.15,2013-02-10 11:49:00,
2013-02-10 04:51:00,20.2,3.6,22.16,NNE,20,2.0,21.0,48,0.00,,,0.00,Wunderground v.1.15,2013-02-10 11:51:00,
2013-02-10 04:55:00,20.2,3.6,22.15,NW,326,3.0,21.0,48,0.00,,,0.00,Wunderground v.1.15,2013-02-10 11:55:00,
2013-02-10 04:57:00,20.1,3.5,22.16,NNW,335,3.0,21.0,48,0.00,,,0.00,Wunderground v.1.15,2013-02-10 11:57:00,
2013-02-10 05:01:00,20.1,4.0,22.16,SSW,207,3.0,21.0,49,0.00,,,0.00,Wunderground v.1.15,2013-02-10 12:01:00,
2013-02-10 05:03:00,20.1,3.5,22.16,WNW,283,2.0,21.0,48,0.00,,,0.00,Wunderground v.1.15,2013-02-10 12:03:00,
2013-02-10 05:07:00,20.1,3.5,22.16,NNW,346,2.0,21.0,48,0.00,,,0.00,Wunderground v.1.15,2013-02-10 12:07:00,
2013-02-10 05:11:00,20.1,3.5,22.16,WSW,247,2.0,21.0,48,0.00,,,0.00,Wunderground v.1.15,2013-02-10 12:11:00,
2013-02-10 05:13:00,20.1,3.1,22.16,NNW,333,2.0,21.0,47,0.00,,,0.00,Wunderground v.1.15,2013-02-10 12:13:00,
2013-02-10 05:15:00,20.1,3.1,22.16,NW,304,2.0,21.0,47,0.00,,,0.00,Wunderground v.1.15,2013-02-10 12:15:00,
2013-02-10 05:17:00,20.1,3.1,22.16,NW,308,2.0,21.0,47,0.00,,,0.00,Wunderground v.1.15,2013-02-10 12:17:00,
2013-02-10 05:19:00,20.2,3.2,22.16,SSE,167,3.0,21.0,47,0.00,,,0.00,Wunderground v.1.15,2013-02-10 12:19:00,
2013-02-10 05:23:00,20.2,3.2,22.16,North,352,3.0,3.0,47,0.00,,,0.00,Wunderground v.1.15,2013-02-10 12:23:00,
2013-02-10 05:25:00,20.2,3.2,22.16,West,273,3.0,21.0,47,0.00,,,0.00,Wunderground v.1.15,2013-02-10 12:25:00,
2013-02-10 05:31:00,20.2,2.7,22.17,North,359,2.0,21.0,46,0.00,,,0.00,Wunderground v.1.15,2013-02-10 12:31:00,
2013-02-10 05:35:00,20.2,2.7,22.16,South,173,2.0,21.0,46,0.00,,,0.00,Wunderground v.1.15,2013-02-10 12:35:00,
2013-02-10 05:39:00,20.1,2.6,22.17,NNW,330,2.0,21.0,46,0.00,,,0.00,Wunderground v.1.15,2013-02-10 12:39:00,
2013-02-10 05:43:00,20.1,3.1,22.17,NNE,12,1.0,1.0,47,0.00,,,0.00,Wunderground v.1.15,2013-02-10 12:43:00,
2013-02-10 05:49:00,20.1,3.1,22.17,WSW,253,2.0,21.0,47,0.00,,,0.00,Wunderground v.1.15,2013-02-10 12:49:00,
2013-02-10 05:51:00,20.1,3.1,22.17,NW,318,2.0,21.0,47,0.00,,,0.00,Wunderground v.1.15,2013-02-10 12:51:00,
2013-02-10 05:55:00,20.0,3.0,22.17,SW,225,2.0,21.0,47,0.00,,,0.00,Wunderground v.1.15,2013-02-10 12:55:00,
2013-02-10 05:57:00,20.0,3.0,22.17,WNW,287,2.0,21.0,47,0.00,,,0.00,Wunderground v.1.15,2013-02-10 12:57:00,
2013-02-10 06:01:00,20.0,2.5,22.17,WNW,294,3.0,21.0,46,0.00,,,0.00,Wunderground v.1.15,2013-02-10 13:01:00,
2013-02-10 06:05:00,20.0,2.5,22.17,NW,313,2.0,21.0,46,0.00,,,0.00,Wunderground v.1.15,2013-02-10 13:05:00,
2013-02-10 06:07:00,20.0,2.5,22.17,SW,219,2.0,21.0,46,0.00,,,0.00,Wunderground v.1.15,2013-02-10 13:07:00,
2013-02-10 06:11:00,20.0,2.5,22.18,WNW,300,2.0,21.0,46,0.00,,,0.00,Wunderground v.1.15,2013-02-10 13:11:00,
2013-02-10 06:13:00,20.0,2.5,22.17,WSW,240,2.0,2.0,46,0.00,,,0.00,Wunderground v.1.15,2013-02-10 13:13:00,
2013-02-10 06:17:00,20.0,2.5,22.18,North,5,2.0,21.0,46,0.00,,,0.00,Wunderground v.1.15,2013-02-10 13:17:00,
2013-02-10 06:19:00,20.0,2.5,22.18,West,275,2.0,21.0,46,0.00,,,0.00,Wunderground v.1.15,2013-02-10 13:19:00,
2013-02-10 06:21:00,19.9,2.9,22.18,North,357,2.0,21.0,47,0.00,,,0.00,Wunderground v.1.15,2013-02-10 13:21:00,
2013-02-10 06:25:00,19.9,2.9,22.18,SSW,207,2.0,21.0,47,0.00,,,0.00,Wunderground v.1.15,2013-02-10 13:25:00,
2013-02-10 06:29:00,19.9,2.9,22.18,West,272,2.0,21.0,47,0.00,,,0.00,Wunderground v.1.15,2013-02-10 13:29:00,
2013-02-10 06:35:00,19.8,2.8,22.18,WNW,294,2.0,21.0,47,0.00,,,0.00,Wunderground v.1.15,2013-02-10 13:35:00,
2013-02-10 06:41:00,19.7,2.7,22.18,WSW,248,2.0,21.0,47,0.00,,,0.00,Wunderground v.1.15,2013-02-10 13:41:00,
2013-02-10 06:43:00,19.7,2.7,22.18,WNW,302,2.0,2.0,47,0.00,,,0.00,Wunderground v.1.15,2013-02-10 13:43:00,
2013-02-10 06:45:00,19.7,2.7,22.19,North,4,2.0,21.0,47,0.00,,,0.00,Wunderground v.1.15,2013-02-10 13:45:00,
2013-02-10 06:49:00,19.6,2.6,22.18,NNW,343,1.0,21.0,47,0.00,,,0.00,Wunderground v.1.15,2013-02-10 13:49:00,
2013-02-10 06:51:00,19.6,2.6,22.18,SSW,201,1.0,21.0,47,0.00,,,0.00,Wunderground v.1.15,2013-02-10 13:51:00,
2013-02-10 06:55:00,19.5,2.5,22.19,WSW,248,1.0,21.0,47,0.00,,,0.00,Wunderground v.1.15,2013-02-10 13:55:00,
2013-02-10 06:59:00,19.5,2.5,22.19,SSW,194,1.0,21.0,47,0.00,,,0.00,Wunderground v.1.15,2013-02-10 13:59:00,
2013-02-10 07:01:00,19.5,2.5,22.19,NNW,339,1.0,21.0,47,0.00,,,0.00,Wunderground v.1.15,2013-02-10 14:01:00,
2013-02-10 07:05:00,19.6,2.6,22.19,West,271,2.0,21.0,47,0.00,,,0.00,Wunderground v.1.15,2013-02-10 14:05:00,
2013-02-10 07:07:00,19.6,2.6,22.19,West,278,2.0,21.0,47,0.00,,,0.00,Wunderground v.1.15,2013-02-10 14:07:00,
2013-02-10 07:09:00,19.6,2.6,22.19,South,190,2.0,21.0,47,0.00,,,0.00,Wunderground v.1.15,2013-02-10 14:09:00,
2013-02-10 07:13:00,19.5,2.5,22.20,NE,56,2.0,21.0,47,0.00,,,0.00,Wunderground v.1.15,2013-02-10 14:13:00,
2013-02-10 07:17:00,19.5,2.5,22.20,WSW,256,1.0,21.0,47,0.00,,,0.00,Wunderground v.1.15,2013-02-10 14:17:00,
2013-02-10 07:19:00,19.5,2.5,22.20,ESE,105,1.0,21.0,47,0.00,,,0.00,Wunderground v.1.15,2013-02-10 14:19:00,
2013-02-10 07:23:00,19.5,2.5,22.20,WNW,298,1.0,21.0,47,0.00,,,0.00,Wunderground v.1.15,2013-02-10 14:23:00,
2013-02-10 07:25:00,19.6,2.1,22.20,SW,225,1.0,21.0,46,0.00,,,0.00,Wunderground v.1.15,2013-02-10 14:25:00,
2013-02-10 07:31:00,19.7,2.2,22.20,SW,236,2.0,21.0,46,0.00,,,0.00,Wunderground v.1.15,2013-02-10 14:31:00,
2013-02-10 07:33:00,19.7,2.2,22.20,SE,146,2.0,2.0,46,0.00,,,0.00,Wunderground v.1.15,2013-02-10 14:33:00,
2013-02-10 07:35:00,19.8,2.3,22.21,WSW,252,2.0,21.0,46,0.00,,,0.00,Wunderground v.1.15,2013-02-10 14:35:00,
2013-02-10 07:39:00,19.8,2.3,22.21,West,260,2.0,21.0,46,0.00,,,0.00,Wunderground v.1.15,2013-02-10 14:39:00,
2013-02-10 07:41:00,19.8,2.3,22.21,North,349,1.0,21.0,46,0.00,,,0.00,Wunderground v.1.15,2013-02-10 14:41:00,
2013-02-10 07:47:00,19.9,2.4,22.21,WSW,240,1.0,21.0,46,0.00,,,0.00,Wunderground v.1.15,2013-02-10 14:47:00,
2013-02-10 07:49:00,19.9,2.4,22.21,WSW,256,1.0,21.0,46,0.00,,,0.00,Wunderground v.1.15,2013-02-10 14:49:00,
2013-02-10 07:53:00,20.0,2.5,22.22,NW,309,1.0,1.0,46,0.00,,,0.00,Wunderground v.1.15,2013-02-10 14:53:00,
2013-02-10 07:57:00,20.0,2.0,22.22,WSW,248,1.0,21.0,45,0.00,,,0.00,Wunderground v.1.15,2013-02-10 14:57:00,
2013-02-10 08:03:00,20.1,2.1,22.22,WSW,238,1.0,21.0,45,0.00,,,0.00,Wunderground v.1.15,2013-02-10 15:03:00,
2013-02-10 08:05:00,20.1,2.1,22.22,WSW,239,1.0,21.0,45,0.00,,,0.00,Wunderground v.1.15,2013-02-10 15:05:00,
2013-02-10 08:11:00,20.2,2.2,22.22,ENE,70,1.0,21.0,45,0.00,,,0.00,Wunderground v.1.15,2013-02-10 15:11:00,
2013-02-10 08:13:00,20.2,2.2,22.22,SW,214,1.0,21.0,45,0.00,,,0.00,Wunderground v.1.15,2013-02-10 15:13:00,
2013-02-10 08:17:00,20.2,2.2,22.23,WNW,284,1.0,21.0,45,0.00,,,0.00,Wunderground v.1.15,2013-02-10 15:17:00,
2013-02-10 08:19:00,20.3,2.3,22.23,WNW,298,1.0,21.0,45,0.00,,,0.00,Wunderground v.1.15,2013-02-10 15:19:00,
2013-02-10 08:23:00,20.4,2.4,22.23,NW,316,1.0,1.0,45,0.00,,,0.00,Wunderground v.1.15,2013-02-10 15:23:00,
2013-02-10 08:29:00,20.5,2.5,22.23,NW,305,1.0,21.0,45,0.00,,,0.00,Wunderground v.1.15,2013-02-10 15:29:00,
2013-02-10 08:33:00,20.6,2.6,22.23,NNW,336,2.0,21.0,45,0.00,,,0.00,Wunderground v.1.15,2013-02-10 15:33:00,
2013-02-10 08:37:00,20.7,2.7,22.23,North,355,2.0,21.0,45,0.00,,,0.00,Wunderground v.1.15,2013-02-10 15:37:00,
2013-02-10 08:39:00,20.8,2.8,22.24,West,263,2.0,21.0,45,0.00,,,0.00,Wunderground v.1.15,2013-02-10 15:39:00,
2013-02-10 08:43:00,20.9,2.9,22.24,WSW,240,1.0,21.0,45,0.00,,,0.00,Wunderground v.1.15,2013-02-10 15:43:00,
2013-02-10 08:49:00,21.0,3.0,22.24,SW,217,1.0,21.0,45,0.00,,,0.00,Wunderground v.1.15,2013-02-10 15:49:00,
2013-02-10 08:51:00,21.0,3.0,22.24,NNE,27,1.0,21.0,45,0.00,,,0.00,Wunderground v.1.15,2013-02-10 15:51:00,
2013-02-10 08:55:00,21.1,3.0,22.24,WSW,257,1.0,21.0,45,0.00,,,0.00,Wunderground v.1.15,2013-02-10 15:55:00,
2013-02-10 08:57:00,21.2,3.1,22.24,NNE,25,1.0,21.0,45,0.00,,,0.00,Wunderground v.1.15,2013-02-10 15:57:00,
2013-02-10 08:59:00,21.2,3.1,22.24,WSW,240,1.0,21.0,45,0.00,,,0.00,Wunderground v.1.15,2013-02-10 15:59:00,
2013-02-10 09:01:00,21.3,3.2,22.24,SW,236,1.0,21.0,45,0.00,,,0.00,Wunderground v.1.15,2013-02-10 16:01:00,
2013-02-10 09:05:00,21.4,2.8,22.24,SW,214,1.0,21.0,44,0.00,,,0.00,Wunderground v.1.15,2013-02-10 16:05:00,
2013-02-10 09:11:00,21.7,3.1,22.24,NNW,338,2.0,21.0,44,0.00,,,0.00,Wunderground v.1.15,2013-02-10 16:11:00,
2013-02-10 09:13:00,21.8,2.7,22.25,NE,56,2.0,21.0,43,0.00,,,0.00,Wunderground v.1.15,2013-02-10 16:13:00,
2013-02-10 09:17:00,21.9,2.3,22.25,SE,133,2.0,21.0,42,0.00,,,0.00,Wunderground v.1.15,2013-02-10 16:17:00,
2013-02-10 09:21:00,22.1,3.0,22.25,SE,124,2.0,21.0,43,0.00,,,0.00,Wunderground v.1.15,2013-02-10 16:21:00,
2013-02-10 09:25:00,22.5,2.3,22.25,WNW,288,2.0,21.0,41,0.00,,,0.00,Wunderground v.1.15,2013-02-10 16:25:00,
2013-02-10 09:27:00,22.5,2.3,22.25,SW,229,1.0,21.0,41,0.00,,,0.00,Wunderground v.1.15,2013-02-10 16:27:00,
2013-02-10 09:31:00,22.5,2.3,22.25,WSW,249,2.0,21.0,41,0.00,,,0.00,Wunderground v.1.15,2013-02-10 16:31:00,
2013-02-10 09:37:00,22.3,2.6,22.25,WSW,240,2.0,21.0,42,0.00,,,0.00,Wunderground v.1.15,2013-02-10 16:37:00,
2013-02-10 09:39:00,22.4,2.7,22.25,WSW,246,2.0,21.0,42,0.00,,,0.00,Wunderground v.1.15,2013-02-10 16:39:00,
2013-02-10 09:41:00,22.5,2.8,22.25,NNW,340,1.0,21.0,42,0.00,,,0.00,Wunderground v.1.15,2013-02-10 16:41:00,
2013-02-10 09:45:00,22.6,2.9,22.25,WSW,240,2.0,21.0,42,0.00,,,0.00,Wunderground v.1.15,2013-02-10 16:45:00,
2013-02-10 09:47:00,22.4,2.7,22.25,SW,228,3.0,21.0,42,0.00,,,0.00,Wunderground v.1.15,2013-02-10 16:47:00,
2013-02-10 09:53:00,22.2,2.6,22.25,SW,226,4.0,4.0,42,0.00,,,0.00,Wunderground v.1.15,2013-02-10 16:53:00,
2013-02-10 09:55:00,22.1,3.0,22.25,WSW,245,3.0,21.0,43,0.00,,,0.00,Wunderground v.1.15,2013-02-10 16:55:00,
2013-02-10 10:01:00,22.1,3.0,22.25,SW,215,3.0,21.0,43,0.00,,,0.00,Wunderground v.1.15,2013-02-10 17:01:00,
2013-02-10 10:03:00,22.1,3.5,22.25,WSW,243,2.0,21.0,44,0.00,,,0.00,Wunderground v.1.15,2013-02-10 17:03:00,
2013-02-10 10:09:00,22.3,2.6,22.25,SW,231,3.0,21.0,42,0.00,,,0.00,Wunderground v.1.15,2013-02-10 17:09:00,
2013-02-10 10:15:00,22.3,3.2,22.26,WSW,249,3.0,21.0,43,0.00,,,0.00,Wunderground v.1.15,2013-02-10 17:15:00,
2013-02-10 10:21:00,22.5,3.8,22.26,WSW,246,3.0,21.0,44,0.00,,,0.00,Wunderground v.1.15,2013-02-10 17:21:00,
2013-02-10 10:23:00,22.4,3.7,22.26,SSW,201,3.0,3.0,44,0.00,,,0.00,Wunderground v.1.15,2013-02-10 17:23:00,
2013-02-10 10:25:00,22.3,4.1,22.26,SSE,150,3.0,21.0,45,0.00,,,0.00,Wunderground v.1.15,2013-02-10 17:25:00,
2013-02-10 10:27:00,22.3,4.1,22.26,SE,134,2.0,21.0,45,0.00,,,0.00,Wunderground v.1.15,2013-02-10 17:27:00,
2013-02-10 10:31:00,22.2,2.0,22.26,East,98,3.0,21.0,41,0.00,,,0.00,Wunderground v.1.15,2013-02-10 17:31:00,
2013-02-10 10:33:00,22.4,2.2,22.26,SE,136,3.0,3.0,41,0.00,,,0.00,Wunderground v.1.15,2013-02-10 17:33:00,
2013-02-10 10:39:00,22.8,3.1,22.26,WNW,298,3.0,21.0,42,0.00,,,0.00,Wunderground v.1.15,2013-02-10 17:39:00,
2013-02-10 10:41:00,23.0,3.3,22.27,SE,136,2.0,21.0,42,0.00,,,0.00,Wunderground v.1.15,2013-02-10 17:41:00,
2013-02-10 10:45:00,23.0,2.8,22.26,NNE,29,2.0,21.0,41,0.00,,,0.00,Wunderground v.1.15,2013-02-10 17:45:00,
2013-02-10 10:47:00,22.9,3.2,22.27,East,101,1.0,21.0,42,0.00,,,0.00,Wunderground v.1.15,2013-02-10 17:47:00,
2013-02-10 10:53:00,23.1,3.9,22.27,NW,326,3.0,21.0,43,0.00,,,0.00,Wunderground v.1.15,2013-02-10 17:53:00,
2013-02-10 10:57:00,23.0,3.3,22.27,NE,44,4.0,21.0,42,0.00,,,0.00,Wunderground v.1.15,2013-02-10 17:57:00,
2013-02-10 11:01:00,22.7,4.0,22.27,North,354,4.0,21.0,44,0.00,,,0.00,Wunderground v.1.15,2013-02-10 18:01:00,
2013-02-10 11:03:00,22.7,4.0,22.27,NW,307,4.0,21.0,44,0.00,,,0.00,Wunderground v.1.15,2013-02-10 18:03:00,
2013-02-10 11:09:00,22.5,3.8,22.27,WSW,239,3.0,21.0,44,0.00,,,0.00,Wunderground v.1.15,2013-02-10 18:09:00,
2013-02-10 11:15:00,22.5,4.3,22.27,SW,215,2.0,21.0,45,0.00,,,0.00,Wunderground v.1.15,2013-02-10 18:15:00,
2013-02-10 11:17:00,22.7,4.0,22.27,NE,43,2.0,21.0,44,0.00,,,0.00,Wunderground v.1.15,2013-02-10 18:17:00,
2013-02-10 11:23:00,23.3,4.1,22.27,NNW,338,1.0,21.0,43,0.00,,,0.00,Wunderground v.1.15,2013-02-10 18:23:00,
2013-02-10 11:25:00,23.3,4.6,22.27,North,355,2.0,21.0,44,0.00,,,0.00,Wunderground v.1.15,2013-02-10 18:25:00,
2013-02-10 11:27:00,23.5,6.2,22.27,East,79,2.0,21.0,47,0.00,,,0.00,Wunderground v.1.15,2013-02-10 18:27:00,
2013-02-10 11:29:00,23.7,6.4,22.27,East,79,3.0,21.0,47,0.00,,,0.00,Wunderground v.1.15,2013-02-10 18:29:00,
2013-02-10 11:33:00,23.4,4.7,22.27,ENE,60,4.0,21.0,44,0.00,,,0.00,Wunderground v.1.15,2013-02-10 18:33:00,
2013-02-10 11:35:00,23.1,4.4,22.27,NE,53,4.0,21.0,44,0.00,,,0.00,Wunderground v.1.15,2013-02-10 18:35:00,
2013-02-10 11:41:00,23.4,1.5,22.27,NE,40,4.0,21.0,38,0.00,,,0.00,Wunderground v.1.15,2013-02-10 18:41:00,
2013-02-10 11:45:00,23.8,1.3,22.27,WNW,299,4.0,21.0,37,0.00,,,0.00,Wunderground v.1.15,2013-02-10 18:45:00,
2013-02-10 11:47:00,23.8,1.3,22.26,North,6,3.0,21.0,37,0.00,,,0.00,Wunderground v.1.15,2013-02-10 18:47:00,
2013-02-10 11:49:00,24.0,3.1,22.27,NNW,336,3.0,21.0,40,0.00,,,0.00,Wunderground v.1.15,2013-02-10 18:49:00,
2013-02-10 11:51:00,24.2,5.4,22.26,NE,41,3.0,21.0,44,0.00,,,0.00,Wunderground v.1.15,2013-02-10 18:51:00,
2013-02-10 11:57:00,24.1,5.8,22.26,NE,37,3.0,21.0,45,0.00,,,0.00,Wunderground v.1.15,2013-02-10 18:57:00,
2013-02-10 12:03:00,23.7,5.4,22.26,NNW,342,4.0,4.0,45,0.00,,,0.00,Wunderground v.1.15,2013-02-10 19:03:00,
2013-02-10 12:05:00,23.6,5.3,22.26,NNE,32,3.0,8.0,45,0.00,,,0.00,Wunderground v.1.15,2013-02-10 19:05:00,
2013-02-10 12:09:00,23.2,6.8,22.26,ESE,105,4.0,21.0,49,0.00,,,0.00,Wunderground v.1.15,2013-02-10 19:09:00,
2013-02-10 12:15:00,22.9,6.6,22.26,East,93,4.0,21.0,49,0.00,,,0.00,Wunderground v.1.15,2013-02-10 19:15:00,
2013-02-10 12:19:00,23.0,6.2,22.26,SE,134,4.0,21.0,48,0.00,,,0.00,Wunderground v.1.15,2013-02-10 19:19:00,
2013-02-10 12:25:00,23.1,6.3,22.26,SE,124,3.0,21.0,48,0.00,,,0.00,Wunderground v.1.15,2013-02-10 19:25:00,
2013-02-10 12:27:00,23.1,5.8,22.26,SE,136,3.0,21.0,47,0.00,,,0.00,Wunderground v.1.15,2013-02-10 19:27:00,
2013-02-10 12:29:00,23.1,6.3,22.26,SSE,163,3.0,21.0,48,0.00,,,0.00,Wunderground v.1.15,2013-02-10 19:29:00,
2013-02-10 12:31:00,23.2,6.4,22.26,NW,323,3.0,21.0,48,0.00,,,0.00,Wunderground v.1.15,2013-02-10 19:31:00,
2013-02-10 12:33:00,23.3,6.5,22.26,NE,56,3.0,21.0,48,0.00,,,0.00,Wunderground v.1.15,2013-02-10 19:33:00,
2013-02-10 12:35:00,23.4,6.1,22.26,ENE,75,3.0,21.0,47,0.00,,,0.00,Wunderground v.1.15,2013-02-10 19:35:00,
2013-02-10 12:41:00,24.0,5.7,22.26,South,179,2.0,21.0,45,0.00,,,0.00,Wunderground v.1.15,2013-02-10 19:41:00,
2013-02-10 12:47:00,24.7,5.8,22.26,NNE,27,2.0,21.0,44,0.00,,,0.00,Wunderground v.1.15,2013-02-10 19:47:00,
2013-02-10 12:51:00,24.4,4.6,22.25,WSW,238,2.0,21.0,42,0.00,,,0.00,Wunderground v.1.15,2013-02-10 19:51:00,
2013-02-10 12:53:00,24.5,5.2,22.25,SE,127,1.0,21.0,43,0.00,,,0.00,Wunderground v.1.15,2013-02-10 19:53:00,
2013-02-10 12:59:00,24.6,4.7,22.25,NNW,336,1.0,21.0,42,0.00,,,0.00,Wunderground v.1.15,2013-02-10 19:59:00,
2013-02-10 13:01:00,24.6,4.2,22.25,SE,136,2.0,21.0,41,0.00,,,0.00,Wunderground v.1.15,2013-02-10 20:01:00,
2013-02-10 13:05:00,24.2,3.9,22.25,NE,54,3.0,21.0,41,0.00,,,0.00,Wunderground v.1.15,2013-02-10 20:05:00,
2013-02-10 13:11:00,24.4,4.0,22.25,South,188,3.0,21.0,41,0.00,,,0.00,Wunderground v.1.15,2013-02-10 20:11:00,
2013-02-10 13:13:00,24.5,4.1,22.25,NNE,30,2.0,21.0,41,0.00,,,0.00,Wunderground v.1.15,2013-02-10 20:13:00,
2013-02-10 13:17:00,24.8,4.4,22.25,NE,43,2.0,21.0,41,0.00,,,0.00,Wunderground v.1.15,2013-02-10 20:17:00,
2013-02-10 13:23:00,24.9,3.9,22.25,North,9,3.0,3.0,40,0.00,,,0.00,Wunderground v.1.15,2013-02-10 20:23:00,
2013-02-10 13:25:00,25.1,4.7,22.25,ESE,117,2.0,21.0,41,0.00,,,0.00,Wunderground v.1.15,2013-02-10 20:25:00,
2013-02-10 13:29:00,25.8,3.6,22.25,ESE,109,2.0,21.0,38,0.00,,,0.00,Wunderground v.1.15,2013-02-10 20:29:00,
2013-02-10 13:31:00,25.7,3.6,22.25,ENE,74,2.0,21.0,38,0.00,,,0.00,Wunderground v.1.15,2013-02-10 20:31:00,
2013-02-10 13:35:00,25.3,3.2,22.25,North,351,2.0,21.0,38,0.00,,,0.00,Wunderground v.1.15,2013-02-10 20:35:00,
2013-02-10 13:39:00,25.4,3.8,22.25,SSW,204,2.0,21.0,39,0.00,,,0.00,Wunderground v.1.15,2013-02-10 20:39:00,
2013-02-10 13:43:00,25.8,3.6,22.25,WSW,246,2.0,21.0,38,0.00,,,0.00,Wunderground v.1.15,2013-02-10 20:43:00,
2013-02-10 13:45:00,25.5,3.4,22.25,WSW,249,3.0,21.0,38,0.00,,,0.00,Wunderground v.1.15,2013-02-10 20:45:00,
2013-02-10 13:51:00,25.2,7.3,22.26,South,187,5.0,21.0,46,0.00,,,0.00,Wunderground v.1.15,2013-02-10 20:51:00,
2013-02-10 13:57:00,24.9,8.4,22.26,SE,141,5.0,21.0,49,0.00,,,0.00,Wunderground v.1.15,2013-02-10 20:57:00,
2013-02-10 13:59:00,24.8,9.2,22.26,SE,146,5.0,21.0,51,0.00,,,0.00,Wunderground v.1.15,2013-02-10 20:59:00,
2013-02-10 14:03:00,24.7,10.0,22.26,ESE,109,5.0,21.0,53,0.00,,,0.00,Wunderground v.1.15,2013-02-10 21:03:00,
2013-02-10 14:07:00,24.7,10.0,22.26,South,188,5.0,21.0,53,0.00,,,0.00,Wunderground v.1.15,2013-02-10 21:07:00,
2013-02-10 14:09:00,24.8,9.6,22.26,SSE,153,5.0,21.0,52,0.00,,,0.00,Wunderground v.1.15,2013-02-10 21:09:00,
2013-02-10 14:13:00,24.9,10.2,22.26,SE,133,4.0,21.0,53,0.00,,,0.00,Wunderground v.1.15,2013-02-10 21:13:00,
2013-02-10 14:19:00,24.5,12.6,22.26,ESE,118,4.0,21.0,60,0.00,,,0.00,Wunderground v.1.15,2013-02-10 21:19:00,
2013-02-10 14:25:00,24.2,11.9,22.26,SSE,167,4.0,21.0,59,0.00,,,0.00,Wunderground v.1.15,2013-02-10 21:25:00,
2013-02-10 14:27:00,24.3,10.4,22.26,SW,224,4.0,21.0,55,0.00,,,0.00,Wunderground v.1.15,2013-02-10 21:27:00,
2013-02-10 14:29:00,24.3,9.6,22.26,South,188,3.0,21.0,53,0.00,,,0.00,Wunderground v.1.15,2013-02-10 21:29:00,
2013-02-10 14:33:00,24.6,7.7,22.27,South,186,3.0,3.0,48,0.00,,,0.00,Wunderground v.1.15,2013-02-10 21:33:00,
2013-02-10 14:35:00,24.6,6.7,22.26,WSW,250,3.0,21.0,46,0.00,,,0.00,Wunderground v.1.15,2013-02-10 21:35:00,
2013-02-10 14:41:00,24.7,7.3,22.26,SW,226,3.0,21.0,47,0.00,,,0.00,Wunderground v.1.15,2013-02-10 21:41:00,
2013-02-10 14:47:00,24.7,8.2,22.27,South,174,3.0,21.0,49,0.00,,,0.00,Wunderground v.1.15,2013-02-10 21:47:00,
2013-02-10 14:53:00,24.4,10.5,22.27,SSW,205,3.0,21.0,55,0.00,,,0.00,Wunderground v.1.15,2013-02-10 21:53:00,
2013-02-10 14:55:00,24.2,10.7,22.27,SSW,204,3.0,21.0,56,0.00,,,0.00,Wunderground v.1.15,2013-02-10 21:55:00,
2013-02-10 14:59:00,24.0,11.7,22.27,SE,142,4.0,21.0,59,0.00,,,0.00,Wunderground v.1.15,2013-02-10 21:59:00,
2013-02-10 15:01:00,23.9,11.6,22.27,SSE,157,3.0,21.0,59,0.00,,,0.00,Wunderground v.1.15,2013-02-10 22:01:00,
2013-02-10 15:05:00,23.7,12.2,22.28,SSE,150,3.0,5.0,61,0.00,,,0.00,Wunderground v.1.15,2013-02-10 22:05:00,
2013-02-10 15:11:00,23.5,12.0,22.28,SSE,150,3.0,21.0,61,0.00,,,0.00,Wunderground v.1.15,2013-02-10 22:11:00,
2013-02-10 15:13:00,23.4,11.9,22.28,SSE,163,3.0,21.0,61,0.00,,,0.00,Wunderground v.1.15,2013-02-10 22:13:00,
2013-02-10 15:17:00,23.3,11.8,22.28,SSW,198,3.0,21.0,61,0.00,,,0.00,Wunderground v.1.15,2013-02-10 22:17:00,
2013-02-10 15:19:00,23.1,11.6,22.28,SSE,167,4.0,21.0,61,0.00,,,0.00,Wunderground v.1.15,2013-02-10 22:19:00,
2013-02-10 15:23:00,23.0,11.9,22.28,SSE,149,4.0,4.0,62,0.00,,,0.00,Wunderground v.1.15,2013-02-10 22:23:00,
2013-02-10 15:25:00,22.9,11.8,22.28,SSE,153,4.0,21.0,62,0.00,,,0.00,Wunderground v.1.15,2013-02-10 22:25:00,
2013-02-10 15:29:00,22.8,12.1,22.28,NE,53,4.0,21.0,63,0.00,,,0.00,Wunderground v.1.15,2013-02-10 22:29:00,
2013-02-10 15:33:00,22.7,12.0,22.29,SSW,212,4.0,4.0,63,0.00,,,0.00,Wunderground v.1.15,2013-02-10 22:33:00,
2013-02-10 15:35:00,22.7,12.0,22.29,SE,136,4.0,21.0,63,0.00,,,0.00,Wunderground v.1.15,2013-02-10 22:35:00,
2013-02-10 15:39:00,22.7,12.3,22.29,ESE,117,3.0,21.0,64,0.00,,,0.00,Wunderground v.1.15,2013-02-10 22:39:00,
2013-02-10 15:41:00,22.7,12.7,22.29,SSE,160,3.0,21.0,65,0.00,,,0.00,Wunderground v.1.15,2013-02-10 22:41:00,
2013-02-10 15:43:00,22.6,12.9,22.29,SE,146,4.0,21.0,66,0.00,,,0.00,Wunderground v.1.15,2013-02-10 22:43:00,
2013-02-10 15:47:00,22.3,13.0,22.29,SSE,157,4.0,21.0,67,0.00,,,0.00,Wunderground v.1.15,2013-02-10 22:47:00,
2013-02-10 15:49:00,22.1,13.1,22.29,SSE,159,5.0,21.0,68,0.00,,,0.00,Wunderground v.1.15,2013-02-10 22:49:00,
2013-02-10 15:51:00,22.0,13.4,22.29,SSE,164,4.0,21.0,69,0.00,,,0.00,Wunderground v.1.15,2013-02-10 22:51:00,
2013-02-10 15:55:00,21.9,13.3,22.30,SE,134,4.0,21.0,69,0.00,,,0.00,Wunderground v.1.15,2013-02-10 22:55:00,
2013-02-10 15:57:00,21.6,13.3,22.30,SE,133,4.0,21.0,70,0.00,,,0.00,Wunderground v.1.15,2013-02-10 22:57:00,
2013-02-10 16:01:00,21.3,14.0,22.30,SSW,203,4.0,21.0,73,0.00,,,0.00,Wunderground v.1.15,2013-02-10 23:01:00,
2013-02-10 16:03:00,21.1,14.1,22.30,South,172,4.0,21.0,74,0.00,,,0.00,Wunderground v.1.15,2013-02-10 23:03:00,
2013-02-10 16:07:00,20.7,14.3,22.30,SW,222,3.0,21.0,76,0.00,,,0.00,Wunderground v.1.15,2013-02-10 23:07:00,
2013-02-10 16:09:00,20.5,14.1,22.31,East,81,4.0,21.0,76,0.00,,,0.00,Wunderground v.1.15,2013-02-10 23:09:00,
2013-02-10 16:11:00,20.4,14.3,22.31,South,186,3.0,21.0,77,0.00,,,0.00,Wunderground v.1.15,2013-02-10 23:11:00,
2013-02-10 16:15:00,20.1,13.7,22.31,SSE,161,2.0,4.0,76,0.00,,,0.00,Wunderground v.1.15,2013-02-10 23:15:00,
2013-02-10 16:19:00,20.0,13.0,22.31,South,178,3.0,21.0,74,0.00,,,0.00,Wunderground v.1.15,2013-02-10 23:19:00,
2013-02-10 16:21:00,19.9,12.9,22.31,South,179,3.0,21.0,74,0.00,,,0.00,Wunderground v.1.15,2013-02-10 23:21:00,
2013-02-10 16:25:00,19.8,13.2,22.31,ESE,112,4.0,21.0,75,0.00,,,0.00,Wunderground v.1.15,2013-02-10 23:25:00,
2013-02-10 16:27:00,19.7,13.4,22.31,SSE,160,4.0,21.0,76,0.00,,,0.00,Wunderground v.1.15,2013-02-10 23:27:00,
2013-02-10 16:29:00,19.7,13.4,22.31,ESE,108,3.0,21.0,76,0.00,,,0.00,Wunderground v.1.15,2013-02-10 23:29:00,
2013-02-10 16:33:00,19.6,13.6,22.31,SSE,149,2.0,21.0,77,0.00,,,0.00,Wunderground v.1.15,2013-02-10 23:33:00,
2013-02-10 16:35:00,19.5,13.2,22.31,SSE,150,2.0,21.0,76,0.00,,,0.00,Wunderground v.1.15,2013-02-10 23:35:00,
2013-02-10 16:39:00,19.4,13.1,22.31,South,184,3.0,21.0,76,0.00,,,0.00,Wunderground v.1.15,2013-02-10 23:39:00,
2013-02-10 16:45:00,19.4,12.8,22.32,SSW,208,3.0,21.0,75,0.00,,,0.00,Wunderground v.1.15,2013-02-10 23:45:00,
2013-02-10 16:47:00,19.4,12.8,22.32,SE,143,2.0,21.0,75,0.00,,,0.00,Wunderground v.1.15,2013-02-10 23:47:00,
2013-02-10 16:49:00,19.4,12.5,22.32,ENE,60,2.0,21.0,74,0.00,,,0.00,Wunderground v.1.15,2013-02-10 23:49:00,
2013-02-10 16:53:00,19.3,12.1,22.32,SSE,148,3.0,3.0,73,0.00,,,0.00,Wunderground v.1.15,2013-02-10 23:53:00,
2013-02-10 16:55:00,19.3,12.1,22.32,SSE,160,3.0,21.0,73,0.00,,,0.00,Wunderground v.1.15,2013-02-10 23:55:00,
2013-02-10 16:59:00,19.2,12.0,22.32,SSE,157,3.0,21.0,73,0.00,,,0.00,Wunderground v.1.15,2013-02-10 23:59:00,
2013-02-10 17:01:00,19.2,11.6,22.32,SE,143,3.0,21.0,72,0.00,,,0.00,Wunderground v.1.15,2013-02-11 00:01:00,
2013-02-10 17:05:00,19.1,11.9,22.32,SE,146,3.0,21.0,73,0.00,,,0.00,Wunderground v.1.15,2013-02-11 00:05:00,
2013-02-10 17:07:00,19.0,11.5,22.32,SSE,166,3.0,21.0,72,0.00,,,0.00,Wunderground v.1.15,2013-02-11 00:07:00,
2013-02-10 17:11:00,18.9,11.7,22.32,SSW,197,3.0,21.0,73,0.00,,,0.00,Wunderground v.1.15,2013-02-11 00:11:00,
2013-02-10 17:13:00,18.9,11.7,22.32,SE,146,3.0,3.0,73,0.00,,,0.00,Wunderground v.1.15,2013-02-11 00:13:00,
2013-02-10 17:15:00,18.9,11.7,22.32,SE,142,3.0,4.0,73,0.00,,,0.00,Wunderground v.1.15,2013-02-11 00:15:00,
2013-02-10 17:19:00,18.7,11.5,22.32,ESE,103,3.0,21.0,73,0.00,,,0.00,Wunderground v.1.15,2013-02-11 00:19:00,
2013-02-10 17:23:00,18.6,11.4,22.32,SE,146,3.0,3.0,73,0.00,,,0.00,Wunderground v.1.15,2013-02-11 00:23:00,
2013-02-10 17:25:00,18.5,11.6,22.32,SE,144,3.0,21.0,74,0.00,,,0.00,Wunderground v.1.15,2013-02-11 00:25:00,
2013-02-10 17:27:00,18.4,11.5,22.33,SE,133,3.0,21.0,74,0.00,,,0.00,Wunderground v.1.15,2013-02-11 00:27:00,
2013-02-10 17:29:00,18.3,11.1,22.33,ESE,115,3.0,21.0,73,0.00,,,0.00,Wunderground v.1.15,2013-02-11 00:29:00,
2013-02-10 17:31:00,18.3,11.4,22.33,SE,133,3.0,21.0,74,0.00,,,0.00,Wunderground v.1.15,2013-02-11 00:31:00,
2013-02-10 17:35:00,18.1,11.2,22.33,SSE,167,3.0,21.0,74,0.00,,,0.00,Wunderground v.1.15,2013-02-11 00:35:00,
2013-02-10 17:37:00,17.9,11.0,22.33,SSE,148,3.0,21.0,74,0.00,,,0.00,Wunderground v.1.15,2013-02-11 00:37:00,
2013-02-10 17:39:00,17.9,11.0,22.33,SE,124,3.0,21.0,74,0.00,,,0.00,Wunderground v.1.15,2013-02-11 00:39:00,
2013-02-10 17:41:00,17.8,10.9,22.33,ESE,105,2.0,21.0,74,0.00,,,0.00,Wunderground v.1.15,2013-02-11 00:41:00,
2013-02-10 17:45:00,17.7,10.8,22.33,ESE,122,2.0,21.0,74,0.00,,,0.00,Wunderground v.1.15,2013-02-11 00:45:00,
2013-02-10 17:47:00,17.5,10.6,22.33,SE,129,2.0,21.0,74,0.00,,,0.00,Wunderground v.1.15,2013-02-11 00:47:00,
2013-02-10 17:51:00,17.5,10.3,22.33,SE,136,2.0,21.0,73,0.00,,,0.00,Wunderground v.1.15,2013-02-11 00:51:00,
2013-02-10 17:55:00,17.4,10.5,22.34,NNE,30,2.0,21.0,74,0.00,,,0.00,Wunderground v.1.15,2013-02-11 00:55:00,
2013-02-10 17:57:00,17.3,10.7,22.34,ESE,104,2.0,21.0,75,0.00,,,0.00,Wunderground v.1.15,2013-02-11 00:57:00,
2013-02-10 17:59:00,17.2,10.6,22.33,WSW,250,2.0,21.0,75,0.00,,,0.00,Wunderground v.1.15,2013-02-11 00:59:00,
2013-02-10 18:05:00,16.9,10.3,22.33,NE,46,1.0,21.0,75,0.00,,,0.00,Wunderground v.1.15,2013-02-11 01:05:00,
2013-02-10 18:09:00,16.9,10.3,22.34,ENE,71,2.0,21.0,75,0.00,,,0.00,Wunderground v.1.15,2013-02-11 01:09:00,
2013-02-10 18:11:00,16.8,10.2,22.34,East,85,2.0,21.0,75,0.00,,,0.00,Wunderground v.1.15,2013-02-11 01:11:00,
2013-02-10 18:17:00,16.8,9.9,22.34,SE,143,2.0,21.0,74,0.00,,,0.00,Wunderground v.1.15,2013-02-11 01:17:00,
2013-02-10 18:19:00,16.8,9.9,22.34,East,92,2.0,21.0,74,0.00,,,0.00,Wunderground v.1.15,2013-02-11 01:19:00,
2013-02-10 18:21:00,16.7,9.8,22.34,ENE,72,2.0,21.0,74,0.00,,,0.00,Wunderground v.1.15,2013-02-11 01:21:00,
2013-02-10 18:25:00,16.7,9.8,22.34,ESE,117,2.0,21.0,74,0.00,,,0.00,Wunderground v.1.15,2013-02-11 01:25:00,
2013-02-10 18:27:00,16.6,9.8,22.35,North,11,2.0,21.0,74,0.00,,,0.00,Wunderground v.1.15,2013-02-11 01:27:00,
2013-02-10 18:31:00,16.5,9.7,22.35,South,174,2.0,21.0,74,0.00,,,0.00,Wunderground v.1.15,2013-02-11 01:31:00,
2013-02-10 18:35:00,16.4,9.3,22.35,SE,143,1.0,21.0,73,0.00,,,0.00,Wunderground v.1.15,2013-02-11 01:35:00,
2013-02-10 18:37:00,16.4,9.3,22.35,SW,224,1.0,21.0,73,0.00,,,0.00,Wunderground v.1.15,2013-02-11 01:37:00,
2013-02-10 18:43:00,16.1,9.0,22.35,SE,133,1.0,1.0,73,0.00,,,0.00,Wunderground v.1.15,2013-02-11 01:43:00,
2013-02-10 18:45:00,16.1,9.0,22.35,ENE,77,1.0,21.0,73,0.00,,,0.00,Wunderground v.1.15,2013-02-11 01:45:00,
2013-02-10 18:51:00,16.2,8.8,22.35,East,82,1.0,21.0,72,0.00,,,0.00,Wunderground v.1.15,2013-02-11 01:51:00,
2013-02-10 18:55:00,16.0,8.6,22.35,NNE,16,1.0,21.0,72,0.00,,,0.00,Wunderground v.1.15,2013-02-11 01:55:00,
2013-02-10 18:57:00,15.9,8.5,22.36,NNE,18,0.0,21.0,72,0.00,,,0.00,Wunderground v.1.15,2013-02-11 01:57:00,
2013-02-10 19:01:00,15.6,8.5,22.35,SW,219,0.0,21.0,73,0.00,,,0.00,Wunderground v.1.15,2013-02-11 02:01:00,
2013-02-10 19:03:00,15.5,8.4,22.36,NE,44,0.0,21.0,73,0.00,,,0.00,Wunderground v.1.15,2013-02-11 02:03:00,
2013-02-10 19:05:00,15.5,8.4,22.36,NE,44,0.0,21.0,73,0.00,,,0.00,Wunderground v.1.15,2013-02-11 02:05:00,
2013-02-10 19:09:00,15.3,8.2,22.36,WSW,257,0.0,21.0,73,0.00,,,0.00,Wunderground v.1.15,2013-02-11 02:09:00,
2013-02-10 19:11:00,15.2,8.1,22.36,WSW,257,0.0,21.0,73,0.00,,,0.00,Wunderground v.1.15,2013-02-11 02:11:00,
2013-02-10 19:15:00,15.0,7.9,22.36,NE,46,0.0,21.0,73,0.00,,,0.00,Wunderground v.1.15,2013-02-11 02:15:00,
2013-02-10 19:19:00,14.9,7.8,22.36,NE,37,0.0,21.0,73,0.00,,,0.00,Wunderground v.1.15,2013-02-11 02:19:00,
2013-02-10 19:21:00,14.8,7.7,22.36,ENE,57,0.0,21.0,73,0.00,,,0.00,Wunderground v.1.15,2013-02-11 02:21:00,
2013-02-10 19:25:00,14.6,7.5,22.36,NE,53,0.0,21.0,73,0.00,,,0.00,Wunderground v.1.15,2013-02-11 02:25:00,
2013-02-10 19:27:00,14.5,7.7,22.36,NE,53,0.0,21.0,74,0.00,,,0.00,Wunderground v.1.15,2013-02-11 02:27:00,
2013-02-10 19:29:00,14.4,7.6,22.36,NE,53,0.0,21.0,74,0.00,,,0.00,Wunderground v.1.15,2013-02-11 02:29:00,
2013-02-10 19:31:00,14.3,7.5,22.36,NE,54,0.0,21.0,74,0.00,,,0.00,Wunderground v.1.15,2013-02-11 02:31:00,
2013-02-10 19:35:00,14.1,7.6,22.36,North,359,0.0,21.0,75,0.00,,,0.00,Wunderground v.1.15,2013-02-11 02:35:00,
2013-02-10 19:37:00,14.1,7.6,22.36,ESE,104,0.0,21.0,75,0.00,,,0.00,Wunderground v.1.15,2013-02-11 02:37:00,
2013-02-10 19:41:00,14.0,7.2,22.36,WSW,253,1.0,21.0,74,0.00,,,0.00,Wunderground v.1.15,2013-02-11 02:41:00,
2013-02-10 19:43:00,13.9,7.4,22.36,SW,218,1.0,21.0,75,0.00,,,0.00,Wunderground v.1.15,2013-02-11 02:43:00,
2013-02-10 19:45:00,13.9,7.4,22.36,SSE,149,1.0,21.0,75,0.00,,,0.00,Wunderground v.1.15,2013-02-11 02:45:00,
2013-02-10 19:51:00,13.8,7.6,22.36,SW,229,1.0,21.0,76,0.00,,,0.00,Wunderground v.1.15,2013-02-11 02:51:00,
2013-02-10 19:53:00,13.7,7.2,22.36,ESE,117,1.0,21.0,75,0.00,,,0.00,Wunderground v.1.15,2013-02-11 02:53:00,
2013-02-10 19:57:00,13.6,7.1,22.37,SSE,158,1.0,21.0,75,0.00,,,0.00,Wunderground v.1.15,2013-02-11 02:57:00,
2013-02-10 19:59:00,13.6,7.4,22.37,SW,219,1.0,21.0,76,0.00,,,0.00,Wunderground v.1.15,2013-02-11 02:59:00,
2013-02-10 20:01:00,13.7,7.8,22.37,SW,228,1.0,21.0,77,0.00,,,0.00,Wunderground v.1.15,2013-02-11 03:01:00,
2013-02-10 20:05:00,13.9,7.7,22.37,SE,143,1.0,21.0,76,0.00,,,0.00,Wunderground v.1.15,2013-02-11 03:05:00,
2013-02-10 20:11:00,14.3,7.8,22.38,East,92,2.0,21.0,75,0.00,,,0.00,Wunderground v.1.15,2013-02-11 03:11:00,
2013-02-10 20:17:00,14.2,7.4,22.38,SW,223,1.0,21.0,74,0.00,,,0.00,Wunderground v.1.15,2013-02-11 03:17:00,
2013-02-10 20:23:00,13.9,7.4,22.38,SW,225,1.0,1.0,75,0.00,,,0.00,Wunderground v.1.15,2013-02-11 03:23:00,
2013-02-10 20:25:00,13.8,7.0,22.38,SSW,211,1.0,21.0,74,0.00,,,0.00,Wunderground v.1.15,2013-02-11 03:25:00,
2013-02-10 20:27:00,13.7,7.2,22.38,WSW,255,1.0,21.0,75,0.00,,,0.00,Wunderground v.1.15,2013-02-11 03:27:00,
2013-02-10 20:31:00,13.5,7.0,22.38,SSW,208,1.0,21.0,75,0.00,,,0.00,Wunderground v.1.15,2013-02-11 03:31:00,
2013-02-10 20:33:00,13.4,7.0,22.38,SSW,212,1.0,21.0,75,0.00,,,0.00,Wunderground v.1.15,2013-02-11 03:33:00,
2013-02-10 20:39:00,13.1,7.0,22.39,WSW,257,1.0,21.0,76,0.00,,,0.00,Wunderground v.1.15,2013-02-11 03:39:00,
2013-02-10 20:41:00,13.0,6.6,22.39,WSW,251,1.0,21.0,75,0.00,,,0.00,Wunderground v.1.15,2013-02-11 03:41:00,
2013-02-10 20:43:00,12.7,6.6,22.39,WSW,248,1.0,21.0,76,0.00,,,0.00,Wunderground v.1.15,2013-02-11 03:43:00,
2013-02-10 20:45:00,12.7,6.9,22.39,WSW,256,1.0,21.0,77,0.00,,,0.00,Wunderground v.1.15,2013-02-11 03:45:00,
2013-02-10 20:49:00,12.6,6.8,22.39,South,190,1.0,21.0,77,0.00,,,0.00,Wunderground v.1.15,2013-02-11 03:49:00,
2013-02-10 20:55:00,12.8,6.9,22.39,SSE,150,2.0,21.0,77,0.00,,,0.00,Wunderground v.1.15,2013-02-11 03:55:00,
2013-02-10 21:01:00,12.6,6.8,22.39,SSE,152,2.0,21.0,77,0.00,,,0.00,Wunderground v.1.15,2013-02-11 04:01:00,
2013-02-10 21:03:00,12.5,6.7,22.39,South,191,1.0,1.0,77,0.00,,,0.00,Wunderground v.1.15,2013-02-11 04:03:00,
2013-02-10 21:07:00,12.3,6.5,22.39,SW,219,1.0,21.0,77,0.00,,,0.00,Wunderground v.1.15,2013-02-11 04:07:00,
2013-02-10 21:11:00,12.0,6.5,22.40,SW,231,1.0,21.0,78,0.00,,,0.00,Wunderground v.1.15,2013-02-11 04:11:00,
2013-02-10 21:13:00,11.9,6.4,22.40,SW,232,1.0,1.0,78,0.00,,,0.00,Wunderground v.1.15,2013-02-11 04:13:00,
2013-02-10 21:17:00,11.7,6.2,22.40,East,84,0.0,21.0,78,0.00,,,0.00,Wunderground v.1.15,2013-02-11 04:17:00,
2013-02-10 21:21:00,11.5,6.0,22.40,SW,214,1.0,21.0,78,0.00,,,0.00,Wunderground v.1.15,2013-02-11 04:21:00,
2013-02-10 21:23:00,11.5,6.2,22.40,WSW,240,1.0,21.0,79,0.00,,,0.00,Wunderground v.1.15,2013-02-11 04:23:00,
2013-02-10 21:27:00,11.3,6.1,22.40,WSW,239,1.0,21.0,79,0.00,,,0.00,Wunderground v.1.15,2013-02-11 04:27:00,
2013-02-10 21:29:00,11.3,6.1,22.40,SW,233,1.0,21.0,79,0.00,,,0.00,Wunderground v.1.15,2013-02-11 04:29:00,
2013-02-10 21:31:00,11.1,5.9,22.40,SW,233,1.0,21.0,79,0.00,,,0.00,Wunderground v.1.15,2013-02-11 04:31:00,
2013-02-10 21:37:00,11.0,5.8,22.40,WSW,248,1.0,21.0,79,0.00,,,0.00,Wunderground v.1.15,2013-02-11 04:37:00,
2013-02-10 21:41:00,10.9,5.7,22.40,WSW,248,1.0,21.0,79,0.00,,,0.00,Wunderground v.1.15,2013-02-11 04:41:00,
2013-02-10 21:43:00,10.8,5.8,22.40,NNW,332,1.0,21.0,80,0.00,,,0.00,Wunderground v.1.15,2013-02-11 04:43:00,
2013-02-10 21:47:00,10.9,6.2,22.41,WNW,288,1.0,21.0,81,0.00,,,0.00,Wunderground v.1.15,2013-02-11 04:47:00,
2013-02-10 21:51:00,11.2,6.2,22.41,WNW,288,1.0,21.0,80,0.00,,,0.00,Wunderground v.1.15,2013-02-11 04:51:00,
2013-02-10 21:53:00,11.3,6.3,22.41,NW,311,1.0,1.0,80,0.00,,,0.00,Wunderground v.1.15,2013-02-11 04:53:00,
2013-02-10 21:55:00,11.3,6.3,22.41,NW,310,1.0,21.0,80,0.00,,,0.00,Wunderground v.1.15,2013-02-11 04:55:00,
2013-02-10 21:59:00,11.4,6.2,22.41,WSW,253,0.0,21.0,79,0.00,,,0.00,Wunderground v.1.15,2013-02-11 04:59:00,
2013-02-10 22:01:00,11.2,6.0,22.41,WSW,253,0.0,21.0,79,0.00,,,0.00,Wunderground v.1.15,2013-02-11 05:01:00,
2013-02-10 22:07:00,11.0,5.8,22.41,WSW,255,1.0,21.0,79,0.00,,,0.00,Wunderground v.1.15,2013-02-11 05:07:00,
2013-02-10 22:09:00,11.0,5.8,22.41,WSW,255,1.0,21.0,79,0.00,,,0.00,Wunderground v.1.15,2013-02-11 05:09:00,
2013-02-10 22:15:00,11.0,6.0,22.41,WSW,255,1.0,21.0,80,0.00,,,0.00,Wunderground v.1.15,2013-02-11 05:15:00,
2013-02-10 22:17:00,11.0,6.0,22.41,WSW,255,0.0,21.0,80,0.00,,,0.00,Wunderground v.1.15,2013-02-11 05:17:00,
2013-02-10 22:21:00,10.9,5.7,22.41,WSW,255,0.0,21.0,79,0.00,,,0.00,Wunderground v.1.15,2013-02-11 05:21:00,
2013-02-10 22:23:00,10.8,5.6,22.41,WSW,254,0.0,21.0,79,0.00,,,0.00,Wunderground v.1.15,2013-02-11 05:23:00,
2013-02-10 22:29:00,10.7,5.7,22.41,WSW,255,0.0,21.0,80,0.00,,,0.00,Wunderground v.1.15,2013-02-11 05:29:00,
2013-02-10 22:31:00,10.7,5.7,22.41,WSW,255,0.0,21.0,80,0.00,,,0.00,Wunderground v.1.15,2013-02-11 05:31:00,
2013-02-10 22:35:00,11.0,6.0,22.41,WSW,254,0.0,21.0,80,0.00,,,0.00,Wunderground v.1.15,2013-02-11 05:35:00,
2013-02-10 22:37:00,11.1,6.1,22.41,WSW,255,0.0,21.0,80,0.00,,,0.00,Wunderground v.1.15,2013-02-11 05:37:00,
2013-02-10 22:39:00,11.2,6.2,22.41,WSW,255,0.0,21.0,80,0.00,,,0.00,Wunderground v.1.15,2013-02-11 05:39:00,
2013-02-10 22:43:00,11.2,6.2,22.41,WSW,255,0.0,21.0,80,0.00,,,0.00,Wunderground v.1.15,2013-02-11 05:43:00,
2013-02-10 22:47:00,11.3,6.3,22.41,WSW,255,0.0,21.0,80,0.00,,,0.00,Wunderground v.1.15,2013-02-11 05:47:00,
2013-02-10 22:53:00,11.5,6.5,22.41,WSW,254,0.0,21.0,80,0.00,,,0.00,Wunderground v.1.15,2013-02-11 05:53:00,
2013-02-10 22:55:00,11.5,6.5,22.41,WSW,255,0.0,21.0,80,0.00,,,0.00,Wunderground v.1.15,2013-02-11 05:55:00,
2013-02-10 22:59:00,11.6,6.6,22.41,WSW,254,0.0,21.0,80,0.00,,,0.00,Wunderground v.1.15,2013-02-11 05:59:00,
2013-02-10 23:05:00,11.8,6.5,22.41,WSW,254,0.0,21.0,79,0.00,,,0.00,Wunderground v.1.15,2013-02-11 06:05:00,
2013-02-10 23:07:00,11.8,6.5,22.41,WSW,255,0.0,21.0,79,0.00,,,0.00,Wunderground v.1.15,2013-02-11 06:07:00,
2013-02-10 23:09:00,11.8,6.5,22.41,WSW,254,0.0,21.0,79,0.00,,,0.00,Wunderground v.1.15,2013-02-11 06:09:00,
2013-02-10 23:15:00,11.9,6.9,22.41,WSW,255,0.0,21.0,80,0.00,,,0.00,Wunderground v.1.15,2013-02-11 06:15:00,
2013-02-10 23:17:00,12.0,7.0,22.41,WSW,255,0.0,21.0,80,0.00,,,0.00,Wunderground v.1.15,2013-02-11 06:17:00,
2013-02-10 23:21:00,12.0,6.7,22.41,WSW,255,0.0,21.0,79,0.00,,,0.00,Wunderground v.1.15,2013-02-11 06:21:00,
2013-02-10 23:25:00,12.0,6.7,22.42,WSW,254,0.0,21.0,79,0.00,,,0.00,Wunderground v.1.15,2013-02-11 06:25:00,
2013-02-10 23:27:00,12.0,6.7,22.41,WSW,255,0.0,21.0,79,0.00,,,0.00,Wunderground v.1.15,2013-02-11 06:27:00,
2013-02-10 23:31:00,12.0,7.0,22.42,WSW,255,0.0,21.0,80,0.00,,,0.00,Wunderground v.1.15,2013-02-11 06:31:00,
2013-02-10 23:35:00,12.0,7.0,22.41,WSW,255,0.0,21.0,80,0.00,,,0.00,Wunderground v.1.15,2013-02-11 06:35:00,
2013-02-10 23:41:00,12.1,7.1,22.41,WSW,255,0.0,21.0,80,0.00,,,0.00,Wunderground v.1.15,2013-02-11 06:41:00,
2013-02-10 23:43:00,12.1,7.1,22.41,WSW,255,0.0,21.0,80,0.00,,,0.00,Wunderground v.1.15,2013-02-11 06:43:00,
2013-02-10 23:49:00,11.9,6.9,22.41,WSW,254,0.0,21.0,80,0.00,,,0.00,Wunderground v.1.15,2013-02-11 06:49:00,
2013-02-10 23:51:00,11.9,6.9,22.41,WSW,254,0.0,21.0,80,0.00,,,0.00,Wunderground v.1.15,2013-02-11 06:51:00,
2013-02-10 23:53:00,11.8,6.8,22.41,WSW,255,0.0,21.0,80,0.00,,,0.00,Wunderground v.1.15,2013-02-11 06:53:00,
2013-02-10 23:55:00,11.7,6.7,22.41,WSW,255,0.0,21.0,80,0.00,,,0.00,Wunderground v.1.15,2013-02-11 06:55:00,
2013-02-10 23:59:00,11.5,6.5,22.41,WSW,255,0.0,21.0,80,0.00,,,0.00,Wunderground v.1.15,2013-02-11 06:59:00,